Location: Newark
(33.6333°S, 78.8500°W)
Time: 12:03:04
(UTC+00:00)

Tiros 1 despin weight - Pass Details

Date: 21 September 2019
Orbit: 594 x 643 km, 48.2° (Epoch: 15 October)

Event Time Altitude Azimuth Distance (km) Brightness Sun altitude
Rises 08:39:23 0° 230° (SW) 2,937 - -30.8°
Reaches altitude 10° 08:42:46 10° 205° (SSW) 2,038 - -30.1°
Exits shadow 08:44:29 14° 184° (S) 1,803 ? -29.8°
Maximum altitude 08:45:18 14° 172° (S) 1,774 ? -29.6°
Drops below altitude 10° 08:47:52 10° 139° (SE) 2,048 ? -29.2°
Sets 08:51:16 0° 114° (ESE) 2,961 ? -28.5°
